Location: Stara Lesna
(49.1528°N, 20.2911°E)
Time: 18:57:05
(UTC+02:00)

Cosmos 2061 Rocket - Pass Details

Date: 13 July 2020
Orbit: 965 x 1014 km, 82.9° (Epoch: 10 August)

Event Time Altitude Azimuth Distance (km) Brightness Sun altitude
Exits shadow 03:12:24 15° 210° (SSW) 2,396 5.4 -11.8°
Maximum altitude 03:17:34 55° 284° (WNW) 1,186 4.3 -11.3°
Drops below altitude 10° 03:23:46 10° 2° (N) 2,752 7.3 -10.7°
Sets 03:26:21 0° 7° (N) 3,697 8.2 -10.5°
